User: anonymous   Login
Location: Asheville, NC
(35.6000°N, 82.5500°W)
Time: 16:23:48
(UTC-04:00)
Language:

CUBEBUG 2 - Orbit

View from above orbital plane
View from above orbital plane
View from above satellite
View from above satellite

Ground track
Ground track

The orbit data is extracted from the following two-line orbital elements,

1 39440U 13066AA  18201.09481245  .00000168  00000-0  30275-4 0  9997
2 39440  97.6003 214.3749 0082100  88.7247 272.3367 14.75693247250773
Epoch (UTC): 20 July 2018 02:16:31
Eccentricity: 0.0082100
inclination: 97.6003°
perigee height: 585 km
apogee height: 700 km
right ascension of ascending node: 214.3749°
argument of perigee: 88.7247°
revolutions per day: 14.75693247
mean anomaly at epoch: 272.3367°
orbit number at epoch: 25077

The dashed part of the orbit path shows where the satellite is in the earth's shadow,  

DLR